Regional Weather Roundup
Issued by NWS

Home | Current Version | Previous Version | Text Only | Print | Product List | Glossary On
Versions: 1 2 3 4 5 6 7 8 9 10 11 12 13 14 15 16 17 18 19 20 21 22 23 24 25 26 27 28 29 30 31 32 33 34 35 36 37 38 39 40 41 42 43 44 45 46 47 48 49 50
000
ASUS43 KLMK 231702
RWRKY
KENTUCKY REGIONAL WEATHER ROUNDUP
NATIONAL WEATHER SERVICE LOUISVILLE KY
100 PM EDT THU MAR 23 2017

NOTE "FAIR" INDICATES FEW OR NO CLOUDS BELOW 12,000 FEET
WITH NO SIGNIFICANT WEATHER AND/OR OBSTRUCTIONS TO VISIBILITY.

KYZ001>023-026-027-061>063-070>075-231800-
WESTERN AND SOUTH CENTRAL KENTUCKY

CITY           SKY/WX    TMP DP  RH WIND       PRES   REMARKS
PADUCAH        PTSUNNY   44  36  73 SE10      30.31F
HENDERSON      CLOUDY    39  28  65 CALM      30.37S
OWENSBORO        N/A     46  26  45 MISG        N/A
HOPKINSVILLE   DRIZZLE   43  34  72 NE7       30.35F
BOWLING GREEN  FAIR      54  29  38 CALM      30.37F
GLASGOW        NOT AVBL
$$

KYZ024-025-028>034-038-045-046-053-231800-
NORTH CENTRAL KENTUCKY

CITY           SKY/WX    TMP DP  RH WIND       PRES   REMARKS
LOUISVILLE/SDF PTSUNNY   51  19  28 VRB7      30.37F
LOUISVILLE/LOU FAIR      52  23  32 MISG      30.38F
FORT KNOX      PTSUNNY   52  22  30 CALM      30.34F
$$

KYZ035>037-039>044-047>052-055>060-089>105-231800-
NORTHEAST KENTUCKY

CITY           SKY/WX    TMP DP  RH WIND       PRES   REMARKS
LEXINGTON      FAIR      53  20  27 SE8       30.39F
COVINGTON      FAIR      48  21  34 E9        30.40F
FRANKFORT      FAIR      51  21  30 E9        30.38F
$$

KYZ054-064>069-076>088-106>120-231800-
SOUTHEAST KENTUCKY

CITY           SKY/WX    TMP DP  RH WIND       PRES   REMARKS
JACKSON        FAIR      55  23  28 VRB3      30.39F
LONDON         FAIR      59  23  25 SW10      30.38F
SOMERSET       FAIR      57  27  30 SE3       30.39F
MIDDLESBORO    FAIR      59  27  28 S7        30.41S
MONTICELLO     FAIR      62  30  29 NE8       30.38F
$$




USA.gov is the U.S. government's official web portal to all federal, state and local government web resources and services.